Voltar ao catálogo

FENGYUN 1C DEB

AtivoSSO
NORAD 31468·DEBRIS·🇨🇳 China

Lançado May 10, 1999 de Taiyuan Satellite Launch Center

Loading…

Próximas Passagens (próximas 24 horas)

TLE

EnvelhecendoSource: Space-Track

Época: Sep 7, 2026, 05:48 UTC

1 31468U 99025BVG 26250.24219873  .00001269  00000-0  30149-3 0  9996
2 31468  98.1862 242.3555 0165720  66.0611 295.7839 14.47525102712559

Acompanhe FENGYUN 1C DEB em tempo real com AllMySat

Download on the App Store